ONEWEB-0126 (47272 NORAD) Tracking and Keplerian Element Data

This shows tracking and keplerian element data for the satellite.

Feedback or suggestion? Click here.




ElementValue
Catalog47272
NameONEWEB-0126
Epoch Orbit176
Epoch Day15.91667824
Epoch Year2021
RAAN29.6188
Inclination87.426
Eccentricity0.0010565
Argument of Perigee147.0757
Mean Anonmoly32.6036
Mean Motion15.21536606
Decay Rate-0.01350232
L11 47272U 20100Q 21015.91667824 -.01350232 00000-0 -65873-1 0 9995
L22 47272 87.4260 29.6188 0010565 147.0757 32.6036 15.21536606 1762

Live tracking and technical data element details for ONEWEB-0126 (NORAD 47272). ONEWEB-0126 can be tracked NOW for your location showing map with azimuth and elevation plus other details from your city location.

Track the satellite on the map from your city or location and see movement details for azimuth, elevation, latitude, longitude, range, height, and movement on the map or in text.







IsCatalogInMostPopularTable: catalog: 47272, numindb: 10
Update: records affected: 1



GetName: 47272 ONEWEB-0126

Hit Count: updated at: Sun, 17 Jan 2021 10:19:20 GMT